Station Historical Data
Daily Summary for January 27, 2018 Units:  English    Metric   Both
« Previous Day
Next Day »
Daily Weekly Monthly Yearly Custom
  High: Low: Average:
Temperature: TemperatureF °F 36.4 °F 45.2 °F
Dew Point: DewpointF °F 23.7 °F 32.8 °F
Humidity: Humidity% 41% 64%
Wind Speed: WindSpeedMPHmph 1.0mph 6.5mph
Wind Gust: WindSpeedGustMPHmph - -
Wind- - SW
Pressure: PressureIn in 30.06 in -
Precipitation: 0.00 in    
Historical Graphs
 
 
Tabular Data for January 27, 2018
Time Temperature Dew Point Pressure Wind Wind Speed Wind Gust Humidity Rainfall Rate (Hourly)
TemperatureF °F DewpointF °F PressureIn in Calm     Humidity% HourlyPrecipIn in
00:00 46.7 °F 27.5 °F 30.24 in SSW 7.0 mph 18.0 mph 47% 0.00 in
00:05 46.9 °F 27.7 °F 30.25 in SSW 5.0 mph 14.0 mph 47% 0.00 in
00:09 46.7 °F 27.5 °F 30.24 in SSW 6.0 mph 14.0 mph 47% 0.00 in
00:14 46.7 °F 27.5 °F 30.24 in SW 6.0 mph 12.0 mph 47% 0.00 in
00:19 46.4 °F 27.2 °F 30.24 in SSW 6.0 mph 13.0 mph 47% 0.00 in
00:25 46.1 °F 27.5 °F 30.24 in SW 6.0 mph 13.0 mph 48% 0.00 in
00:29 45.9 °F 27.3 °F 30.24 in WSW 4.0 mph 9.0 mph 48% 0.00 in
00:34 45.6 °F 27.0 °F 30.23 in WSW 5.0 mph 10.0 mph 48% 0.00 in
00:39 45.4 °F 27.3 °F 30.23 in SW 5.0 mph 10.0 mph 49% 0.00 in
00:44 45.1 °F 27.6 °F 30.23 in SW 4.0 mph 10.0 mph 50% 0.00 in
00:49 45.0 °F 27.5 °F 30.22 in SSW 5.0 mph 10.0 mph 50% 0.00 in
00:54 45.0 °F 27.0 °F 30.22 in SSW 5.0 mph 11.0 mph 49% 0.00 in
01:00 44.7 °F 27.2 °F 30.22 in SW 1.0 mph 9.0 mph 50% 0.00 in
01:05 44.4 °F 26.9 °F 30.21 in SW 2.0 mph 7.0 mph 50% 0.00 in
01:10 44.5 °F 27.0 °F 30.21 in South 9.0 mph 9.0 mph 50% 0.00 in
01:14 44.8 °F 26.8 °F 30.21 in SSW 4.0 mph 10.0 mph 49% 0.00 in
01:19 45.3 °F 26.7 °F 30.21 in SSW 5.0 mph 13.0 mph 48% 0.00 in
01:24 45.6 °F 26.5 °F 30.20 in SSW 5.0 mph 13.0 mph 47% 0.00 in
01:30 46.1 °F 26.4 °F 30.20 in SSW 5.0 mph 12.0 mph 46% 0.00 in
01:34 46.5 °F 26.3 °F 30.20 in WSW 6.0 mph 12.0 mph 45% 0.00 in
01:39 47.1 °F 26.3 °F 30.20 in WSW 7.0 mph 14.0 mph 44% 0.00 in
01:44 47.5 °F 26.1 °F 30.20 in SSW 5.0 mph 12.0 mph 43% 0.00 in
01:49 47.5 °F 26.1 °F 30.20 in SSW 7.0 mph 15.0 mph 43% 0.00 in
01:54 47.7 °F 26.3 °F 30.20 in SSW 6.0 mph 15.0 mph 43% 0.00 in
01:59 47.8 °F 25.8 °F 30.20 in SSW 7.0 mph 18.0 mph 42% 0.00 in
02:04 48.0 °F 26.0 °F 30.20 in SSW 7.0 mph 18.0 mph 42% 0.00 in
02:10 48.1 °F 26.1 °F 30.20 in South 6.0 mph 12.0 mph 42% 0.00 in
02:15 48.1 °F 26.1 °F 30.20 in SSW 4.0 mph 17.0 mph 42% 0.00 in
02:20 47.8 °F 25.8 °F 30.20 in SSW 4.0 mph 13.0 mph 42% 0.00 in
02:24 47.7 °F 25.7 °F 30.20 in SSW 5.0 mph 15.0 mph 42% 0.00 in
02:29 47.6 °F 25.6 °F 30.20 in SSW 6.0 mph 15.0 mph 42% 0.00 in
02:34 47.4 °F 26.0 °F 30.20 in SSW 6.0 mph 16.0 mph 43% 0.00 in
02:39 47.3 °F 25.9 °F 30.20 in SSW 6.0 mph 16.0 mph 43% 0.00 in
02:44 47.2 °F 25.8 °F 30.20 in South 7.0 mph 12.0 mph 43% 0.00 in
02:49 47.1 °F 25.7 °F 30.20 in SSW 7.0 mph 11.0 mph 43% 0.00 in
02:54 47.0 °F 26.2 °F 30.20 in South 5.0 mph 8.0 mph 44% 0.00 in
02:59 47.0 °F 25.6 °F 30.20 in SSW 5.0 mph 12.0 mph 43% 0.00 in
03:04 47.0 °F 26.2 °F 30.19 in SSW 5.0 mph 12.0 mph 44% 0.00 in
03:09 47.0 °F 26.2 °F 30.19 in SSW 5.0 mph 13.0 mph 44% 0.00 in
03:14 46.9 °F 25.5 °F 30.18 in SSW 3.0 mph 10.0 mph 43% 0.00 in
03:20 46.7 °F 25.9 °F 30.18 in South 6.0 mph 10.0 mph 44% 0.00 in
03:25 46.5 °F 25.7 °F 30.18 in SSW 5.0 mph 12.0 mph 44% 0.00 in
03:29 46.5 °F 25.7 °F 30.18 in SSW 5.0 mph 13.0 mph 44% 0.00 in
03:34 46.5 °F 25.7 °F 30.18 in SSW 5.0 mph 13.0 mph 44% 0.00 in
03:39 46.5 °F 25.7 °F 30.18 in SSW 5.0 mph 10.0 mph 44% 0.00 in
03:44 46.5 °F 25.7 °F 30.18 in SSW 3.0 mph 9.0 mph 44% 0.00 in
03:50 46.5 °F 25.7 °F 30.18 in SSW 3.0 mph 11.0 mph 44% 0.00 in
03:55 46.2 °F 25.5 °F 30.18 in South 6.0 mph 10.0 mph 44% 0.00 in
04:00 46.4 °F 25.6 °F 30.18 in SSW 5.0 mph 11.0 mph 44% 0.00 in
04:09 46.2 °F 25.5 °F 30.18 in SSW 5.0 mph 11.0 mph 44% 0.00 in
04:14 46.0 °F 25.3 °F 30.17 in SSW 5.0 mph 10.0 mph 44% 0.00 in
04:20 46.1 °F 25.4 °F 30.17 in SSW 6.0 mph 15.0 mph 44% 0.00 in
04:25 46.1 °F 25.4 °F 30.18 in SSW 5.0 mph 14.0 mph 44% 0.00 in
04:30 46.1 °F 25.4 °F 30.17 in SSW 5.0 mph 14.0 mph 44% 0.00 in
04:39 45.9 °F 25.2 °F 30.17 in SSW 5.0 mph 13.0 mph 44% 0.00 in
04:44 45.7 °F 25.0 °F 30.17 in SSW 5.0 mph 13.0 mph 44% 0.00 in
04:49 45.9 °F 25.2 °F 30.17 in SW 10.0 mph 13.0 mph 44% 0.00 in
04:54 45.9 °F 24.6 °F 30.17 in South 8.0 mph 15.0 mph 43% 0.00 in
04:59 46.1 °F 24.8 °F 30.17 in SSW 7.0 mph 14.0 mph 43% 0.00 in
05:04 46.2 °F 24.9 °F 30.17 in South 5.0 mph 13.0 mph 43% 0.00 in
05:09 46.1 °F 24.8 °F 30.17 in SSW 5.0 mph 10.0 mph 43% 0.00 in
05:14 46.1 °F 24.8 °F 30.17 in SSW 5.0 mph 15.0 mph 43% 0.00 in
05:19 45.9 °F 24.6 °F 30.17 in SSW 5.0 mph 15.0 mph 43% 0.00 in
05:24 45.9 °F 24.6 °F 30.17 in SSW 5.0 mph 16.0 mph 43% 0.00 in
05:29 45.8 °F 24.5 °F 30.16 in SSW 5.0 mph 16.0 mph 43% 0.00 in
05:34 45.9 °F 24.6 °F 30.16 in SSW 5.0 mph 14.0 mph 43% 0.00 in
05:40 45.9 °F 24.1 °F 30.16 in SSW 6.0 mph 14.0 mph 42% 0.00 in
05:44 45.9 °F 24.1 °F 30.16 in SSW 6.0 mph 14.0 mph 42% 0.00 in
05:49 45.9 °F 24.6 °F 30.16 in SSW 5.0 mph 9.0 mph 43% 0.00 in
05:54 45.9 °F 24.1 °F 30.16 in SSW 4.0 mph 11.0 mph 42% 0.00 in
05:59 45.9 °F 24.1 °F 30.16 in South 9.0 mph 14.0 mph 42% 0.00 in
06:04 46.0 °F 24.2 °F 30.16 in SW 5.0 mph 13.0 mph 42% 0.00 in
06:09 45.9 °F 24.1 °F 30.16 in SSW 6.0 mph 12.0 mph 42% 0.00 in
06:14 45.8 °F 24.0 °F 30.17 in SSW 3.0 mph 11.0 mph 42% 0.00 in
06:19 45.9 °F 24.1 °F 30.16 in SSW 5.0 mph 11.0 mph 42% 0.00 in
06:24 45.6 °F 23.8 °F 30.16 in SSW 5.0 mph 13.0 mph 42% 0.00 in
06:29 45.9 °F 24.1 °F 30.16 in SSW 5.0 mph 14.0 mph 42% 0.00 in
06:34 46.1 °F 23.7 °F 30.16 in SSW 6.0 mph 14.0 mph 41% 0.00 in
06:39 46.3 °F 23.9 °F 30.16 in SSW 6.0 mph 13.0 mph 41% 0.00 in
06:44 46.5 °F 24.0 °F 30.16 in SSW 7.0 mph 18.0 mph 41% 0.00 in
06:49 46.7 °F 24.2 °F 30.16 in SSW 6.0 mph 16.0 mph 41% 0.00 in
06:54 46.7 °F 24.2 °F 30.16 in WSW 4.0 mph 13.0 mph 41% 0.00 in
06:59 46.7 °F 24.2 °F 30.16 in SSW 10.0 mph 15.0 mph 41% 0.00 in
07:04 46.8 °F 24.9 °F 30.16 in SW 10.0 mph 12.0 mph 42% 0.00 in
07:09 46.7 °F 24.2 °F 30.16 in South 4.0 mph 14.0 mph 41% 0.00 in
07:14 46.6 °F 24.7 °F 30.16 in SSW 4.0 mph 15.0 mph 42% 0.00 in
07:19 46.4 °F 24.5 °F 30.16 in SSW 7.0 mph 14.0 mph 42% 0.00 in
07:24 46.4 °F 24.5 °F 30.16 in SSW 6.0 mph 14.0 mph 42% 0.00 in
07:29 46.3 °F 25.0 °F 30.16 in SSW 7.0 mph 15.0 mph 43% 0.00 in
07:34 46.2 °F 25.5 °F 30.16 in SSW 6.0 mph 15.0 mph 44% 0.00 in
07:39 46.2 °F 25.5 °F 30.15 in SSW 6.0 mph 14.0 mph 44% 0.00 in
07:44 46.2 °F 25.5 °F 30.16 in SSW 6.0 mph 12.0 mph 44% 0.00 in
07:49 46.0 °F 25.3 °F 30.16 in SW 4.0 mph 11.0 mph 44% 0.00 in
07:54 46.0 °F 25.8 °F 30.15 in South 3.0 mph 13.0 mph 45% 0.00 in
07:59 46.1 °F 25.9 °F 30.16 in SSW 5.0 mph 13.0 mph 45% 0.00 in
08:04 46.3 °F 26.1 °F 30.15 in SSW 5.0 mph 12.0 mph 45% 0.00 in
08:09 46.4 °F 26.2 °F 30.16 in SSW 6.0 mph 13.0 mph 45% 0.00 in
08:14 46.5 °F 26.3 °F 30.15 in SSW 5.0 mph 11.0 mph 45% 0.00 in
08:19 46.7 °F 27.0 °F 30.15 in SW 7.0 mph 15.0 mph 46% 0.00 in
08:24 46.9 °F 27.2 °F 30.15 in SSW 8.0 mph 13.0 mph 46% 0.00 in
08:29 47.0 °F 27.3 °F 30.15 in SSW 6.0 mph 13.0 mph 46% 0.00 in
08:34 47.0 °F 27.3 °F 30.15 in SSW 5.0 mph 12.0 mph 46% 0.00 in
08:39 47.1 °F 27.4 °F 30.15 in SSW 6.0 mph 12.0 mph 46% 0.00 in
08:44 47.2 °F 28.0 °F 30.15 in South 4.0 mph 16.0 mph 47% 0.00 in
08:49 47.3 °F 28.1 °F 30.15 in South 10.0 mph 17.0 mph 47% 0.00 in
08:54 47.4 °F 28.2 °F 30.14 in South 3.0 mph 14.0 mph 47% 0.00 in
08:59 47.5 °F 28.3 °F 30.14 in SSW 8.0 mph 15.0 mph 47% 0.00 in
09:04 47.5 °F 28.3 °F 30.14 in SSW 8.0 mph 15.0 mph 47% 0.00 in
09:09 47.6 °F 28.3 °F 30.14 in SSW 8.0 mph 15.0 mph 47% 0.00 in
09:14 47.7 °F 28.4 °F 30.14 in SSW 7.0 mph 16.0 mph 47% 0.00 in
09:19 47.8 °F 28.5 °F 30.14 in South 8.0 mph 17.0 mph 47% 0.00 in
09:24 47.8 °F 29.0 °F 30.14 in SSW 6.0 mph 17.0 mph 48% 0.00 in
09:29 47.6 °F 28.9 °F 30.14 in SW 11.0 mph 17.0 mph 48% 0.00 in
09:34 47.7 °F 28.9 °F 30.14 in SSW 8.0 mph 19.0 mph 48% 0.00 in
09:39 47.7 °F 29.5 °F 30.13 in SSW 8.0 mph 19.0 mph 49% 0.00 in
09:44 47.8 °F 29.5 °F 30.14 in SSW 7.0 mph 16.0 mph 49% 0.00 in
09:49 48.0 °F 29.7 °F 30.14 in South 8.0 mph 18.0 mph 49% 0.00 in
09:54 48.0 °F 29.7 °F 30.14 in SSE 8.0 mph 16.0 mph 49% 0.00 in
09:59 47.9 °F 30.1 °F 30.14 in South 5.0 mph 16.0 mph 50% 0.00 in
10:04 47.8 °F 30.5 °F 30.14 in SSW 7.0 mph 16.0 mph 51% 0.00 in
10:09 48.1 °F 30.3 °F 30.14 in SSW 7.0 mph 17.0 mph 50% 0.00 in
10:14 48.1 °F 30.3 °F 30.14 in SW 8.0 mph 13.0 mph 50% 0.00 in
10:19 48.1 °F 30.8 °F 30.14 in SSW 11.0 mph 15.0 mph 51% 0.00 in
10:24 48.0 °F 31.7 °F 30.14 in SSW 8.0 mph 16.0 mph 53% 0.00 in
10:29 48.0 °F 32.1 °F 30.14 in WSW 4.0 mph 14.0 mph 54% 0.00 in
10:34 48.0 °F 31.7 °F 30.14 in SSW 3.0 mph 17.0 mph 53% 0.00 in
10:39 48.0 °F 31.7 °F 30.14 in SSW 6.0 mph 17.0 mph 53% 0.00 in
10:44 48.0 °F 32.1 °F 30.13 in SSW 7.0 mph 14.0 mph 54% 0.00 in
10:49 48.0 °F 32.1 °F 30.13 in South 5.0 mph 14.0 mph 54% 0.00 in
10:54 48.1 °F 32.7 °F 30.13 in SW 2.0 mph 12.0 mph 55% 0.00 in
10:59 48.1 °F 32.7 °F 30.13 in SSW 1.0 mph 10.0 mph 55% 0.00 in
11:04 48.1 °F 32.7 °F 30.13 in SSW 4.0 mph 14.0 mph 55% 0.00 in
11:09 48.0 °F 33.0 °F 30.13 in SSW 6.0 mph 14.0 mph 56% 0.00 in
11:14 48.1 °F 33.1 °F 30.13 in SSW 7.0 mph 14.0 mph 56% 0.00 in
11:19 48.1 °F 33.6 °F 30.13 in SW 6.0 mph 14.0 mph 57% 0.00 in
11:24 48.3 °F 33.3 °F 30.12 in SW 6.0 mph 15.0 mph 56% 0.00 in
11:29 48.5 °F 33.5 °F 30.12 in SW 7.0 mph 15.0 mph 56% 0.00 in
11:34 48.5 °F 33.5 °F 30.12 in SW 8.0 mph 16.0 mph 56% 0.00 in
11:40 48.4 °F 33.9 °F 30.11 in South 10.0 mph 17.0 mph 57% 0.00 in
11:44 48.5 °F 33.9 °F 30.11 in SSW 7.0 mph 17.0 mph 57% 0.00 in
11:49 48.5 °F 33.9 °F 30.11 in SSW 7.0 mph 14.0 mph 57% 0.00 in
11:54 48.5 °F 33.9 °F 30.11 in SW 10.0 mph 18.0 mph 57% 0.00 in
11:59 48.5 °F 33.9 °F 30.11 in SW 5.0 mph 19.0 mph 57% 0.00 in
12:04 48.5 °F 34.4 °F 30.10 in SW 2.0 mph 16.0 mph 58% 0.00 in
12:09 48.4 °F 34.3 °F 30.11 in South 5.0 mph 16.0 mph 58% 0.00 in
12:14 48.3 °F 34.6 °F 30.10 in SSW 5.0 mph 21.0 mph 59% 0.00 in
12:19 48.3 °F 35.0 °F 30.10 in SSW 7.0 mph 21.0 mph 60% 0.00 in
12:24 48.2 °F 35.0 °F 30.10 in SSW 7.0 mph 17.0 mph 60% 0.00 in
12:29 48.2 °F 35.4 °F 30.10 in SSW 7.0 mph 18.0 mph 61% 0.00 in
12:34 48.1 °F 35.3 °F 30.10 in SSW 8.0 mph 18.0 mph 61% 0.00 in
12:39 48.0 °F 35.6 °F 30.10 in SW 14.0 mph 14.0 mph 62% 0.00 in
12:44 47.9 °F 35.5 °F 30.09 in WSW 9.0 mph 14.0 mph 62% 0.00 in
12:49 47.9 °F 35.5 °F 30.09 in SW 8.0 mph 18.0 mph 62% 0.00 in
12:54 48.0 °F 35.6 °F 30.08 in SSW 8.0 mph 18.0 mph 62% 0.00 in
12:59 48.1 °F 35.7 °F 30.08 in SW 6.0 mph 16.0 mph 62% 0.00 in
13:04 48.1 °F 35.7 °F 30.08 in SSW 9.0 mph 15.0 mph 62% 0.00 in
13:09 48.0 °F 36.0 °F 30.08 in SSW 14.0 mph 14.0 mph 63% 0.00 in
13:14 48.0 °F 36.0 °F 30.08 in West 4.0 mph 16.0 mph 63% 0.00 in
13:19 47.9 °F 35.9 °F 30.07 in SSW 3.0 mph 17.0 mph 63% 0.00 in
13:24 47.9 °F 36.3 °F 30.07 in SSW 7.0 mph 18.0 mph 64% 0.00 in
13:29 48.0 °F 36.4 °F 30.07 in SW 7.0 mph 18.0 mph 64% 0.00 in
13:34 47.9 °F 36.3 °F 30.07 in SW 7.0 mph 16.0 mph 64% 0.00 in
13:39 48.0 °F 36.8 °F 30.07 in SSW 8.0 mph 18.0 mph 65% 0.00 in
13:44 47.9 °F 37.1 °F 30.07 in SSW 9.0 mph 20.0 mph 66% 0.00 in
13:49 47.7 °F 37.7 °F 30.07 in SSW 9.0 mph 20.0 mph 68% 0.00 in
13:54 47.4 °F 38.1 °F 30.07 in South 7.0 mph 18.0 mph 70% 0.00 in
13:59 46.9 °F 38.3 °F 30.07 in SW 16.0 mph 21.0 mph 72% 0.00 in
14:04 46.4 °F 38.2 °F 30.07 in SW 5.0 mph 19.0 mph 73% 0.00 in
14:09 45.9 °F 38.4 °F 30.06 in South 6.0 mph 20.0 mph 75% 0.00 in
14:14 45.7 °F 38.6 °F 30.07 in South 10.0 mph 20.0 mph 76% 0.00 in
14:19 45.4 °F 38.6 °F 30.07 in SSW 12.0 mph 17.0 mph 77% 0.00 in
14:24 45.2 °F 38.4 °F 30.07 in SSW 5.0 mph 21.0 mph 77% 0.00 in
14:29 45.1 °F 38.6 °F 30.07 in SSW 10.0 mph 18.0 mph 78% 0.00 in
14:34 45.0 °F 38.6 °F 30.06 in SSW 8.0 mph 19.0 mph 78% 0.00 in
14:39 44.9 °F 38.8 °F 30.06 in SSW 9.0 mph 22.0 mph 79% 0.00 in
14:44 44.8 °F 38.7 °F 30.06 in SSW 9.0 mph 22.0 mph 79% 0.00 in
14:49 44.7 °F 38.6 °F 30.06 in SSW 8.0 mph 17.0 mph 79% 0.01 in
14:54 44.6 °F 38.8 °F 30.07 in SSW 6.0 mph 17.0 mph 80% 0.01 in
14:59 44.6 °F 38.8 °F 30.07 in SW 11.0 mph 14.0 mph 80% 0.01 in
15:04 44.5 °F 38.7 °F 30.07 in South 11.0 mph 13.0 mph 80% 0.01 in
15:09 44.5 °F 38.7 °F 30.06 in SSW 7.0 mph 16.0 mph 80% 0.01 in
15:14 44.4 °F 38.9 °F 30.06 in SSW 6.0 mph 16.0 mph 81% 0.01 in
15:19 44.3 °F 38.8 °F 30.06 in SSW 6.0 mph 15.0 mph 81% 0.02 in
15:25 44.3 °F 38.8 °F 30.06 in SW 5.0 mph 13.0 mph 81% 0.02 in
15:30 44.2 °F 39.1 °F 30.06 in SSW 6.0 mph 14.0 mph 82% 0.03 in
15:39 44.3 °F 39.2 °F 30.06 in SW 8.0 mph 17.0 mph 82% 0.03 in
15:44 44.3 °F 39.5 °F 30.06 in SSW 7.0 mph 17.0 mph 83% 0.03 in
15:50 44.2 °F 39.4 °F 30.06 in SSW 4.0 mph 12.0 mph 83% 0.03 in
16:00 44.2 °F 39.4 °F 30.06 in SSW 5.0 mph 14.0 mph 83% 0.04 in
16:05 44.0 °F 39.5 °F 30.07 in South 1.0 mph 7.0 mph 84% 0.04 in
16:14 43.9 °F 39.4 °F 30.07 in SSW 6.0 mph 14.0 mph 84% 0.06 in
16:19 43.8 °F 39.6 °F 30.07 in SSW 6.0 mph 12.0 mph 85% 0.05 in
16:24 43.8 °F 39.6 °F 30.07 in SSW 6.0 mph 13.0 mph 85% 0.06 in
16:29 43.7 °F 39.5 °F 30.07 in WSW 3.0 mph 11.0 mph 85% 0.06 in
16:34 43.7 °F 39.8 °F 30.07 in SSW 8.0 mph 12.0 mph 86% 0.06 in
16:39 43.7 °F 39.8 °F 30.07 in SW 10.0 mph 19.0 mph 86% 0.07 in
16:44 43.7 °F 39.8 °F 30.07 in SSW 6.0 mph 15.0 mph 86% 0.08 in
16:49 43.7 °F 39.8 °F 30.07 in SSW 7.0 mph 15.0 mph 86% 0.07 in
16:54 43.6 °F 39.7 °F 30.07 in SW 6.0 mph 15.0 mph 86% 0.08 in
16:59 43.6 °F 40.0 °F 30.07 in SW 5.0 mph 12.0 mph 87% 0.07 in
17:04 43.6 °F 40.0 °F 30.07 in SSW 5.0 mph 12.0 mph 87% 0.08 in
17:09 43.6 °F 40.0 °F 30.07 in SSW 6.0 mph 12.0 mph 87% 0.08 in
17:14 43.6 °F 40.0 °F 30.08 in SW 5.0 mph 12.0 mph 87% 0.07 in
17:19 43.6 °F 40.0 °F 30.08 in SSW 2.0 mph 8.0 mph 87% 0.08 in
17:24 43.6 °F 40.3 °F 30.07 in South 5.0 mph 12.0 mph 88% 0.08 in
17:29 43.5 °F 40.2 °F 30.07 in SSW 5.0 mph 12.0 mph 88% 0.08 in
17:34 43.6 °F 40.3 °F 30.08 in SW 5.0 mph 15.0 mph 88% 0.09 in
17:39 43.6 °F 40.3 °F 30.08 in SW 4.0 mph 14.0 mph 88% 0.08 in
17:44 43.5 °F 40.2 °F 30.08 in SSW 3.0 mph 12.0 mph 88% 0.08 in
17:49 43.6 °F 40.3 °F 30.08 in SSW 6.0 mph 13.0 mph 88% 0.08 in
17:54 43.6 °F 40.3 °F 30.08 in SW 6.0 mph 15.0 mph 88% 0.08 in
17:59 43.8 °F 40.5 °F 30.08 in SSW 6.0 mph 15.0 mph 88% 0.08 in
18:04 43.8 °F 40.5 °F 30.08 in SSW 7.0 mph 15.0 mph 88% 0.08 in
18:09 43.8 °F 40.5 °F 30.08 in SSW 7.0 mph 16.0 mph 88% 0.08 in
18:14 43.9 °F 40.6 °F 30.09 in SW 6.0 mph 16.0 mph 88% 0.08 in
18:19 43.9 °F 40.9 °F 30.09 in SW 6.0 mph 14.0 mph 89% 0.08 in
18:24 44.0 °F 41.0 °F 30.09 in SW 7.0 mph 16.0 mph 89% 0.07 in
18:29 44.1 °F 41.1 °F 30.09 in SW 11.0 mph 16.0 mph 89% 0.06 in
18:34 44.1 °F 41.1 °F 30.09 in WSW 9.0 mph 16.0 mph 89% 0.06 in
18:39 44.2 °F 41.2 °F 30.09 in South 12.0 mph 18.0 mph 89% 0.06 in
18:44 44.2 °F 41.2 °F 30.09 in WSW 9.0 mph 18.0 mph 89% 0.05 in
18:49 44.3 °F 41.3 °F 30.09 in SW 2.0 mph 19.0 mph 89% 0.05 in
18:54 44.3 °F 41.3 °F 30.09 in SSW 8.0 mph 18.0 mph 89% 0.05 in
18:59 44.3 °F 41.3 °F 30.09 in West 5.0 mph 19.0 mph 89% 0.05 in
19:04 44.3 °F 41.3 °F 30.09 in SW 8.0 mph 19.0 mph 89% 0.04 in
19:09 44.4 °F 41.4 °F 30.09 in SSW 9.0 mph 22.0 mph 89% 0.03 in
19:14 44.4 °F 41.4 °F 30.09 in SSW 9.0 mph 22.0 mph 89% 0.03 in
19:19 44.4 °F 41.4 °F 30.10 in SW 8.0 mph 22.0 mph 89% 0.02 in
19:24 44.4 °F 41.4 °F 30.10 in West 11.0 mph 16.0 mph 89% 0.02 in
19:29 44.5 °F 41.5 °F 30.10 in SW 6.0 mph 16.0 mph 89% 0.02 in
19:34 44.5 °F 41.5 °F 30.11 in WSW 6.0 mph 16.0 mph 89% 0.01 in
19:39 44.5 °F 41.5 °F 30.11 in SW 8.0 mph 16.0 mph 89% 0.01 in
19:44 44.4 °F 41.4 °F 30.11 in SW 4.0 mph 16.0 mph 89% 0.01 in
19:49 44.5 °F 41.5 °F 30.11 in SW 13.0 mph 18.0 mph 89% 0.01 in
19:54 44.6 °F 41.6 °F 30.12 in SW 8.0 mph 20.0 mph 89% 0.00 in
19:59 44.6 °F 41.6 °F 30.12 in SW 11.0 mph 16.0 mph 89% 0.00 in
20:04 44.7 °F 41.4 °F 30.12 in SW 4.0 mph 17.0 mph 88% 0.00 in
20:09 44.7 °F 41.4 °F 30.12 in WSW 8.0 mph 19.0 mph 88% 0.00 in
20:14 44.8 °F 41.5 °F 30.13 in WSW 10.0 mph 21.0 mph 88% 0.00 in
20:19 44.8 °F 41.5 °F 30.13 in WSW 11.0 mph 21.0 mph 88% 0.00 in
20:24 44.7 °F 41.4 °F 30.13 in WSW 10.0 mph 19.0 mph 88% 0.00 in
20:29 44.8 °F 41.2 °F 30.13 in WSW 5.0 mph 19.0 mph 87% 0.00 in
20:34 44.6 °F 41.0 °F 30.14 in SW 8.0 mph 19.0 mph 87% 0.00 in
20:39 44.6 °F 41.0 °F 30.13 in SW 15.0 mph 19.0 mph 87% 0.00 in
20:44 44.6 °F 41.0 °F 30.13 in WSW 10.0 mph 19.0 mph 87% 0.00 in
20:49 44.5 °F 40.9 °F 30.13 in WSW 10.0 mph 19.0 mph 87% 0.00 in
20:54 44.4 °F 40.5 °F 30.14 in WSW 10.0 mph 19.0 mph 86% 0.00 in
20:59 44.3 °F 40.4 °F 30.13 in WSW 12.0 mph 16.0 mph 86% 0.00 in
21:04 44.2 °F 40.3 °F 30.14 in West 6.0 mph 17.0 mph 86% 0.00 in
21:09 44.2 °F 40.3 °F 30.14 in SW 11.0 mph 18.0 mph 86% 0.00 in
21:14 44.0 °F 40.1 °F 30.14 in SW 9.0 mph 25.0 mph 86% 0.00 in
21:19 43.8 °F 39.9 °F 30.14 in WSW 10.0 mph 25.0 mph 86% 0.00 in
21:24 43.5 °F 39.6 °F 30.15 in WSW 9.0 mph 17.0 mph 86% 0.00 in
21:29 43.1 °F 39.2 °F 30.15 in WSW 8.0 mph 17.0 mph 86% 0.00 in
21:34 42.8 °F 38.9 °F 30.15 in WSW 7.0 mph 16.0 mph 86% 0.00 in
21:39 42.4 °F 38.5 °F 30.15 in SW 7.0 mph 16.0 mph 86% 0.00 in
21:44 41.8 °F 37.9 °F 30.16 in West 13.0 mph 16.0 mph 86% 0.00 in
21:49 41.4 °F 37.5 °F 30.16 in SW 8.0 mph 15.0 mph 86% 0.00 in
21:54 41.3 °F 37.7 °F 30.16 in West 8.0 mph 17.0 mph 87% 0.00 in
21:59 41.4 °F 38.1 °F 30.16 in WSW 9.0 mph 17.0 mph 88% 0.00 in
22:04 41.2 °F 37.9 °F 30.17 in WSW 9.0 mph 16.0 mph 88% 0.00 in
22:09 41.0 °F 37.7 °F 30.16 in WSW 8.0 mph 15.0 mph 88% 0.00 in
22:14 40.8 °F 37.5 °F 30.16 in WSW 7.0 mph 11.0 mph 88% 0.00 in
22:19 40.6 °F 37.3 °F 30.16 in West 8.0 mph 12.0 mph 88% 0.00 in
22:24 40.4 °F 37.1 °F 30.17 in West 8.0 mph 14.0 mph 88% 0.00 in
22:29 40.1 °F 37.1 °F 30.17 in WSW 7.0 mph 14.0 mph 89% 0.00 in
22:34 39.9 °F 36.9 °F 30.17 in WSW 7.0 mph 14.0 mph 89% 0.00 in
22:39 39.8 °F 36.8 °F 30.17 in SW 5.0 mph 10.0 mph 89% 0.00 in
22:44 39.6 °F 36.6 °F 30.16 in SW 6.0 mph 13.0 mph 89% 0.00 in
22:49 39.5 °F 36.5 °F 30.17 in WSW 6.0 mph 12.0 mph 89% 0.00 in
22:54 39.3 °F 36.3 °F 30.16 in WSW 3.0 mph 11.0 mph 89% 0.00 in
22:59 39.0 °F 36.0 °F 30.17 in SW 6.0 mph 11.0 mph 89% 0.00 in
23:04 38.9 °F 36.2 °F 30.17 in SW 5.0 mph 11.0 mph 90% 0.00 in
23:09 38.7 °F 36.0 °F 30.18 in SW 5.0 mph 11.0 mph 90% 0.00 in
23:14 38.4 °F 35.7 °F 30.18 in WSW 6.0 mph 15.0 mph 90% 0.00 in
23:19 38.2 °F 35.5 °F 30.18 in SW 6.0 mph 15.0 mph 90% 0.00 in
23:24 38.0 °F 35.3 °F 30.18 in SW 5.0 mph 11.0 mph 90% 0.00 in
23:29 37.8 °F 35.1 °F 30.18 in SW 5.0 mph 11.0 mph 90% 0.00 in
23:34 37.6 °F 34.9 °F 30.19 in South 7.0 mph 10.0 mph 90% 0.00 in
23:39 37.4 °F 34.7 °F 30.19 in WSW 8.0 mph 9.0 mph 90% 0.00 in
23:44 37.1 °F 34.4 °F 30.19 in West 4.0 mph 11.0 mph 90% 0.00 in
23:49 36.8 °F 34.1 °F 30.19 in SW 5.0 mph 10.0 mph 90% 0.00 in
23:54 36.6 °F 33.9 °F 30.19 in WSW 5.0 mph 9.0 mph 90% 0.00 in
23:59 36.4 °F 33.7 °F 30.19 in SW 8.0 mph 11.0 mph 90% 0.00 in
Buffalo, New York, USA
Compliments of Weather Underground - 2.5 mb